Location: Unspecified
(0.0000°N, 0.0000°E)
Time: 08:39:09
(UTC+02:00)

Altair - All Passes

Search period start: 23 October 2014 00:00
Search period end: 01 November 2014 23:00
Orbit: 1501 x 1683 km, 47.2° (Epoch: 21 October)

Date Brightness Start Highest point End Pass type
(mag) Time Alt. Az. Time Alt. Az. Time Alt. Az.
23 Oct - 01:13:56 10° S 01:20:38 22° SE 01:27:24 10° E night (unlit)
23 Oct - 03:15:57 10° SW 03:25:14 74° NW 03:34:52 10° NNE night (unlit)
23 Oct - 05:26:24 10° WNW 05:30:27 13° NW 05:34:34 10° NNW visible
23 Oct - 14:01:30 10° NNW 14:11:08 51° NE 14:20:27 10° ESE daylight
23 Oct - 16:07:01 10° WNW 16:15:44 35° SW 16:24:15 10° SSE daylight
24 Oct - 00:49:21 10° S 00:55:27 19° SE 01:01:35 10° E night (unlit)
24 Oct - 02:50:48 10° SW 03:00:06 82° NW 03:09:45 10° NE night (unlit)
24 Oct - 05:00:09 10° WNW 05:05:11 15° NW 05:10:19 10° NNW visible
24 Oct - 13:36:30 10° NNW 13:45:58 45° NE 13:55:07 10° ESE daylight
24 Oct - 15:41:32 10° WNW 15:50:35 40° SW 15:59:23 10° SSE daylight
25 Oct - 00:24:54 10° S 00:30:15 17° SE 00:35:37 10° E visible
25 Oct - 02:25:41 10° SW 02:34:59 89° SE 02:44:36 10° NE night (unlit)
25 Oct - 04:34:09 10° W 04:39:56 18° NW 04:45:51 10° N visible
25 Oct - 13:11:32 10° NNW 13:20:47 41° NE 13:29:45 10° ESE daylight
25 Oct - 15:16:05 10° WNW 15:25:25 45° SW 15:34:29 10° SSE daylight
26 Oct - 00:00:37 10° SSE 00:05:02 14° SE 00:09:28 10° ESE visible
26 Oct - 02:00:36 10° SW 02:09:52 81° SE 02:19:25 10° NE night (unlit)
26 Oct - 03:08:19 10° W 03:14:42 20° NW 03:21:16 10° N night (unlit)
26 Oct - 11:46:37 10° NNW 11:55:35 36° NE 12:04:19 10° ESE daylight
26 Oct - 13:50:42 10° WNW 14:00:16 51° SW 14:09:33 10° SSE daylight
26 Oct - 22:36:40 10° SSE 22:39:48 12° SE 22:42:56 10° ESE visible
27 Oct - 00:35:33 10° SSW 00:44:45 73° SE 00:54:13 10° NE night (unlit)
27 Oct - 02:42:36 10° W 02:49:29 23° NW 02:56:35 10° N night (unlit)
27 Oct - 11:21:43 10° N 11:30:23 32° NE 11:38:50 10° ESE daylight
27 Oct - 13:25:21 10° NW 13:35:06 57° SW 13:44:35 10° SSE daylight
28 Oct - 00:10:32 10° SSW 00:19:38 65° SE 00:28:59 10° NE night (unlit)
28 Oct - 02:16:58 10° W 02:24:17 26° NW 02:31:50 10° N night (unlit)
28 Oct - 10:56:52 10° N 11:05:10 29° NE 11:13:17 10° ESE daylight
28 Oct - 13:00:02 10° NW 13:09:57 63° SW 13:19:35 10° SSE daylight
28 Oct - 15:13:49 10° SW 15:15:12 10° SW 15:16:36 10° SW daylight
28 Oct - 23:45:33 10° SSW 23:54:31 58° SE 00:03:42 10° NE visible
29 Oct - 01:51:25 10° WSW 01:59:06 29° NW 02:07:02 10° N night (unlit)
29 Oct - 10:32:04 10° N 10:39:57 26° NE 10:47:40 10° E daylight
29 Oct - 12:34:46 10° NW 12:44:48 71° SW 12:54:33 10° SSE daylight
29 Oct - 14:46:16 10° WSW 14:49:56 12° SW 14:53:34 10° SSW daylight
29 Oct - 23:20:35 10° SSW 23:29:24 51° SE 23:38:24 10° NE visible
30 Oct - 01:25:56 10° WSW 01:33:56 33° NW 01:42:11 10° NNE night (unlit)
30 Oct - 10:07:20 10° N 10:14:43 23° NE 10:21:58 10° E daylight
30 Oct - 12:09:32 10° NW 12:19:38 78° SW 12:29:29 10° SE daylight
30 Oct - 14:19:44 10° WSW 14:24:40 15° SW 14:29:33 10° SSW daylight
30 Oct - 22:55:39 10° SSW 23:04:17 45° SE 23:13:03 10° ENE visible
31 Oct - 01:00:31 10° WSW 01:08:46 37° NW 01:17:17 10° NNE night (unlit)
31 Oct - 09:42:41 10° N 09:49:28 20° NE 09:56:09 10° E daylight
31 Oct - 11:44:19 10° NW 11:54:29 86° SW 12:04:23 10° SE daylight
31 Oct - 13:53:32 10° W 13:59:25 17° SW 14:05:14 10° S daylight
31 Oct - 22:30:45 10° SSW 22:39:10 40° SE 22:47:40 10° ENE visible
01 Nov - 00:35:08 10° WSW 00:43:37 42° NW 00:52:22 10° NNE night (unlit)
01 Nov - 09:18:07 10° N 09:24:12 17° NE 09:30:12 10° E daylight
01 Nov - 11:19:09 10° NW 11:29:19 85° NE 11:39:15 10° SE daylight
01 Nov - 13:27:32 10° W 13:34:11 20° SW 13:40:44 10° S daylight
01 Nov - 22:05:53 10° SSW 22:14:02 36° SE 22:22:14 10° ENE visible
